When you browse on this site, cookies collect data to enhance your experience and personalize the content and advertising you see.
Visit our Privacy Policy to learn more. By continuing to use the site, you agree to this use of cookies and data.
  • In Spain
  • List of Countries
  • For 7 days
  • Water Temperature
  • Weather Map
  • Weather Widgets
  • user-avatar
    Login

    Hourly Weather Córdoba

    Today, 9 December, Monday

    Time Temperature Precipitation Wind Pressure Humidity
    00:00 +24°C° 0 mm 2 mps 722 mmHg 46%
    01:00 +24°C° 0 mm 2 mps 722 mmHg 44%
    02:00 +23°C° 0 mm 2 mps 722 mmHg 43%
    03:00 +23°C° 0 mm 2 mps 722 mmHg 42%
    04:00 +23°C° 0 mm 2 mps 722 mmHg 42%
    05:00 +23°C° 0 mm 2 mps 722 mmHg 41%
    06:00 +25°C° 0 mm 2 mps 723 mmHg 36%
    07:00 +28°C° 0 mm 2 mps 723 mmHg 31%
    08:00 +31°C° 0 mm 2 mps 724 mmHg 26%
    09:00 +32°C° 0 mm 2 mps 723 mmHg 22%
    10:00 +35°C° 0 mm 2 mps 723 mmHg 18%
    11:00 +36°C° 0 mm 3 mps 723 mmHg 14%
    12:00 +37°C° 0 mm 3 mps 722 mmHg 14%
    13:00 +37°C° 0 mm 3 mps 722 mmHg 13%
    14:00 +38°C° 0 mm 3 mps 721 mmHg 13%
    15:00 +38°C° 0 mm 3 mps 721 mmHg 13%
    16:00 +38°C° 0 mm 3 mps 720 mmHg 13%
    17:00 +37°C° 0 mm 3 mps 719 mmHg 14%
    18:00 +35°C° 0 mm 3 mps 720 mmHg 18%
    19:00 +31°C° 0 mm 3 mps 720 mmHg 21%
    20:00 +29°C° 0 mm 3 mps 720 mmHg 25%
    21:00 +28°C° 0 mm 3 mps 720 mmHg 26%
    22:00 +27°C° 0 mm 3 mps 721 mmHg 27%
    23:00 +27°C° 0 mm 3 mps 721 mmHg 28%

    Tomorrow, 10 December, Tuesday

    Time Temperature Precipitation Wind Pressure Humidity
    00:00 +26°C° 0 mm 3 mps 721 mmHg 29%
    01:00 +26°C° 0 mm 3 mps 721 mmHg 30%
    02:00 +25°C° 0 mm 2 mps 721 mmHg 31%
    03:00 +25°C° 0 mm 3 mps 721 mmHg 31%
    04:00 +25°C° 0 mm 3 mps 721 mmHg 32%
    05:00 +25°C° 0 mm 3 mps 721 mmHg 33%
    06:00 +27°C° 0 mm 3 mps 721 mmHg 31%
    07:00 +30°C° 0 mm 3 mps 722 mmHg 28%
    08:00 +33°C° 0 mm 4 mps 722 mmHg 26%
    09:00 +35°C° 0 mm 4 mps 722 mmHg 22%
    10:00 +37°C° 0 mm 3 mps 722 mmHg 18%
    11:00 +38°C° 0 mm 3 mps 722 mmHg 15%
    12:00 +39°C° 0 mm 3 mps 721 mmHg 14%
    13:00 +40°C° 0 mm 3 mps 721 mmHg 13%
    14:00 +41°C° 0 mm 4 mps 720 mmHg 12%
    15:00 +40°C° 0 mm 3 mps 719 mmHg 12%
    16:00 +40°C° 0 mm 3 mps 719 mmHg 13%
    17:00 +39°C° 0 mm 3 mps 718 mmHg 13%
    18:00 +37°C° 0 mm 3 mps 719 mmHg 16%
    19:00 +34°C° 0 mm 3 mps 719 mmHg 19%
    20:00 +31°C° 0 mm 3 mps 719 mmHg 22%
    21:00 +30°C° 0 mm 3 mps 719 mmHg 23%
    22:00 +29°C° 0 mm 3 mps 719 mmHg 24%
    23:00 +28°C° 0 mm 3 mps 719 mmHg 26%

    Day after tomorrow, 11 December, Wednesday

    Time Temperature Precipitation Wind Pressure Humidity
    00:00 +28°C° 0 mm 3 mps 719 mmHg 27%
    01:00 +27°C° 0 mm 2 mps 719 mmHg 28%
    02:00 +27°C° 0 mm 2 mps 718 mmHg 29%
    03:00 +27°C° 0 mm 2 mps 718 mmHg 30%
    04:00 +26°C° 0 mm 3 mps 718 mmHg 32%
    05:00 +26°C° 0 mm 3 mps 718 mmHg 33%
    06:00 +29°C° 0 mm 3 mps 718 mmHg 31%
    07:00 +32°C° 0 mm 4 mps 718 mmHg 29%
    08:00 +35°C° 0 mm 5 mps 719 mmHg 28%
    09:00 +37°C° 0 mm 5 mps 718 mmHg 25%
    10:00 +40°C° 0 mm 5 mps 718 mmHg 22%
    11:00 +42°C° 0 mm 5 mps 717 mmHg 18%
    12:00 +42°C° 0 mm 5 mps 717 mmHg 19%
    13:00 +42°C° 0 mm 5 mps 716 mmHg 19%
    14:00 +42°C° 0 mm 5 mps 715 mmHg 19%
    15:00 +42°C° 0 mm 4 mps 715 mmHg 18%
    16:00 +42°C° 0 mm 3 mps 714 mmHg 18%
    17:00 +42°C° 0 mm 3 mps 714 mmHg 17%
    18:00 +37°C° 0 mm 3 mps 714 mmHg 27%
    19:00 +33°C° 0 mm 4 mps 715 mmHg 37%
    20:00 +28°C° 0 mm 5 mps 716 mmHg 47%
    21:00 +26°C° 0.2 mm 5 mps 716 mmHg 53%
    22:00 +25°C° 0.2 mm 4 mps 717 mmHg 58%
    23:00 +23°C° 0.2 mm 4 mps 718 mmHg 63%

    12 December, Thursday

    Time Temperature Precipitation Wind Pressure Humidity
    00:00 +23°C° 0.4 mm 4 mps 718 mmHg 64%
    01:00 +22°C° 0.4 mm 3 mps 719 mmHg 65%
    02:00 +23°C° 0.4 mm 2 mps 719 mmHg 67%
    03:00 +21°C° 0 mm 4 mps 719 mmHg 59%
    04:00 +21°C° 0 mm 5 mps 719 mmHg 52%
    05:00 +20°C° 0 mm 6 mps 720 mmHg 44%
    06:00 +21°C° 0 mm 7 mps 720 mmHg 36%
    07:00 +22°C° 0 mm 7 mps 721 mmHg 28%
    08:00 +23°C° 0 mm 8 mps 722 mmHg 20%
    09:00 +26°C° 0 mm 7 mps 722 mmHg 17%
    10:00 +28°C° 0 mm 7 mps 722 mmHg 13%
    11:00 +30°C° 0 mm 6 mps 722 mmHg 10%
    12:00 +32°C° 0 mm 6 mps 722 mmHg 10%
    13:00 +32°C° 0 mm 5 mps 722 mmHg 9%
    14:00 +33°C° 0 mm 5 mps 721 mmHg 8%
    15:00 +33°C° 0 mm 4 mps 721 mmHg 9%
    16:00 +33°C° 0 mm 4 mps 720 mmHg 10%
    17:00 +33°C° 0 mm 4 mps 720 mmHg 10%
    18:00 +29°C° 0 mm 3 mps 720 mmHg 12%
    19:00 +27°C° 0 mm 3 mps 721 mmHg 13%
    20:00 +25°C° 0 mm 2 mps 721 mmHg 15%
    21:00 +24°C° 0 mm 2 mps 721 mmHg 16%
    22:00 +23°C° 0 mm 2 mps 722 mmHg 17%
    23:00 +20°C° 0 mm 2 mps 722 mmHg 18%

    13 December, Friday

    Time Temperature Precipitation Wind Pressure Humidity
    00:00 +20°C° 0 mm 2 mps 722 mmHg 18%
    01:00 +19°C° 0 mm 2 mps 722 mmHg 19%
    02:00 +19°C° 0 mm 3 mps 722 mmHg 19%
    03:00 +18°C° 0 mm 2 mps 723 mmHg 19%
    04:00 +17°C° 0 mm 2 mps 723 mmHg 20%
    05:00 +17°C° 0 mm 2 mps 723 mmHg 20%
    06:00 +19°C° 0 mm 2 mps 723 mmHg 19%
    07:00 +20°C° 0 mm 2 mps 723 mmHg 17%
    08:00 +23°C° 0 mm 2 mps 724 mmHg 16%
    09:00 +25°C° 0 mm 3 mps 724 mmHg 15%
    10:00 +27°C° 0 mm 3 mps 724 mmHg 13%
    11:00 +29°C° 0 mm 4 mps 724 mmHg 12%
    12:00 +30°C° 0 mm 5 mps 723 mmHg 12%
    13:00 +32°C° 0 mm 6 mps 722 mmHg 12%
    14:00 +33°C° 0 mm 6 mps 721 mmHg 12%
    15:00 +32°C° 0 mm 6 mps 721 mmHg 13%
    16:00 +32°C° 0 mm 5 mps 720 mmHg 15%
    17:00 +32°C° 0 mm 5 mps 719 mmHg 16%
    18:00 +29°C° 0 mm 4 mps 720 mmHg 19%
    19:00 +27°C° 0 mm 3 mps 720 mmHg 21%
    20:00 +25°C° 0 mm 2 mps 720 mmHg 24%
    21:00 +25°C° 0 mm 2 mps 720 mmHg 25%
    22:00 +25°C° 0 mm 2 mps 721 mmHg 26%
    23:00 +24°C° 0 mm 2 mps 721 mmHg 27%

    14 December, Saturday

    Time Temperature Precipitation Wind Pressure Humidity
    00:00 +24°C° 0 mm 2 mps 721 mmHg 29%
    01:00 +24°C° 0 mm 2 mps 721 mmHg 30%
    02:00 +23°C° 0 mm 1 mps 720 mmHg 31%
    03:00 +23°C° 0 mm 1 mps 720 mmHg 33%
    04:00 +23°C° 0 mm 2 mps 720 mmHg 34%
    05:00 +21°C° 0 mm 2 mps 721 mmHg 36%
    06:00 +24°C° 0 mm 2 mps 721 mmHg 35%
    07:00 +25°C° 0 mm 3 mps 721 mmHg 34%
    08:00 +26°C° 0 mm 4 mps 722 mmHg 33%
    09:00 +27°C° 0 mm 4 mps 722 mmHg 34%
    10:00 +27°C° 0 mm 5 mps 722 mmHg 36%
    11:00 +28°C° 0 mm 5 mps 722 mmHg 37%
    12:00 +29°C° 0.1 mm 5 mps 721 mmHg 36%
    13:00 +30°C° 0.1 mm 5 mps 720 mmHg 35%
    14:00 +32°C° 0.1 mm 5 mps 720 mmHg 35%
    15:00 +33°C° 0 mm 5 mps 719 mmHg 36%
    16:00 +33°C° 0 mm 5 mps 719 mmHg 37%
    17:00 +33°C° 0 mm 4 mps 719 mmHg 38%
    18:00 +30°C° 0 mm 3 mps 719 mmHg 45%
    19:00 +28°C° 0 mm 2 mps 719 mmHg 52%
    20:00 +26°C° 0 mm 1 mps 719 mmHg 60%
    21:00 +25°C° 0 mm 1 mps 719 mmHg 61%
    22:00 +25°C° 0 mm 1 mps 720 mmHg 63%
    23:00 +25°C° 0 mm 1 mps 720 mmHg 65%
    Show more